Flag for Switzerland Weather past 2 weeks in Zürich, Zurich, Switzerland

Now
63 °F

Mild.


Feels Like: 63 °F
Forecast: 58 / 76 °F
Wind: 1 mph from South

Location: Zurich Town / Ville.

Current Time: Jul 23, 2014 at 8:33:36 AM

Latest Report: Jul 23, 2014 at 6:00 AM


Visibility: N/A

Pressure: 29.97 "Hg

Humidity: 99%

Dew point: 63 °F

Location of ZürichLocation

Historic Weather in Zürich — Graph

°F

Zürich temperature yesterday

Maximum temperature yesterday: 64 °F (at 6:00 PM)
Minimum temperature yesterday: 60 °F (at 2:00 AM)
Average temperature yesterday: 61 °F

Past Weeks' High & Low Weather Summary

 TemperatureHumidityPressure
High87 °F (Jul 19, 6:00 PM)99% (Jul 23, 1:00 AM)30.19 "Hg (Jul 23, 1:00 AM)
Low49 °F (Jul 10, 2:00 AM)25% (Jul 18, 3:00 PM)29.78 "Hg (Jul 20, 3:00 AM)
Average64 °F79%29.97 "Hg
* Reported Jul 8 6:00 AM — Jul 23 6:00 AM, Zürich, Weather by CustomWeather, © 2014

Note: Actual official high and low records may vary slightly from our data, if they occured in-between our weather recording intervals... More about our weather records

Advertising

Zürich weather history for previous 24 hours

 ConditionsComfort  
Time TempWeatherWind HumidityBarometerVisibility
6:00 AM
Jul 23
63 °FMild.1 mph99%29.97 "HgN/A
5:00 AM63 °FMild.1 mph98%29.97 "HgN/A
4:00 AM63 °FMild.3 mph98%29.97 "HgN/A
3:00 AM63 °FMild.1 mph98%29.98 "HgN/A
2:00 AM63 °FMild.No wind99%29.99 "HgN/A
1:00 AM63 °FMild.1 mph99%30.00 "HgN/A
6:00 PM
Jul 22
64 °FMild.2 mph98%29.95 "HgN/A
5:00 PM62 °FMild.3 mph98%29.95 "HgN/A
4:00 PM62 °FMild.2 mph96%29.94 "HgN/A
3:00 PM62 °FCool.5 mph97%29.94 "HgN/A
2:00 PM62 °FOvercast.6 mph97%29.94 "HgN/A
1:00 PM62 °FCool.5 mph97%29.94 "HgN/A
12:00 PM62 °FCool.5 mph98%29.93 "HgN/A
11:00 AM62 °FCool.7 mph98%29.92 "HgN/A
10:00 AM62 °FCool.8 mph96%29.91 "HgN/A
9:00 AM61 °FCool.5 mph96%29.90 "HgN/A
8:00 AM61 °FOvercast.8 mph97%29.90 "HgN/A
Weather by CustomWeather, © 2014

See weather overviewHow to use our weather pages